Clarion, IA

5:51 PM CDT on July 28, 2016 (GMT -0500)
Clarion Municipal

Weather History for KCAV - October, 2012

Change the Weather History Date:

Wednesday, October 17, 2012

  Actual Average Record
Temperature  
Mean Temperature 53 °F -  
Max Temperature 60 °F 60 °F 83 °F (1950)
Min Temperature 46 °F 35 °F 16 °F (1952)
Degree Days  
Heating Degree Days 12    
Growing Degree Days 3 (Base 50)    
Moisture  
Dew Point 43 °F    
Average Humidity 69    
Maximum Humidity 94    
Minimum Humidity 42    
Precipitation  
Precipitation 0.02 in - - ()
Sea Level Pressure  
Sea Level Pressure 29.37 in    
Wind  
Wind Speed 14 mph (WSW)    
Max Wind Speed 30 mph    
Max Gust Speed 41 mph    
Visibility 10 miles    
Events Rain    
Averages and records for this station are not official NWS values.
T = Trace of Precipitation, MM = Missing Value Source: NWS Daily Summary

Daily Weather History Graph

Daily Weather History Graph

Search for Another Location

Airport or City:

Trip Planner

Search our weather history database for the weather conditions in past years. The results will help you decide how hot, cold, wet, or windy it might be!

Date:

Astronomy

Oct. 17, 2012 Rise Set
Actual Time 7:31 AM CDT 6:28 PM CDT
Civil Twilight 7:02 AM CDT 6:57 PM CDT
Nautical Twilight 6:29 AM CDT 7:29 PM CDT
Astronomical Twilight 5:57 AM CDT 8:02 PM CDT
Moon 10:10 AM CDT (10/17) 8:00 PM CDT (10/17)
Length of Visible Light 11h 54m
Length of Day
10h 57m
Waxing Crescent, 7% of the Moon is Illuminated
Oct 17
Waxing Crescent
Oct 21
First Quarter
Oct 29
Full
Nov 6
Last Quarter
Nov 13
New

Hourly Weather History & Observations

Time (CDT) Temp. Windchill Dew Point Humidity Pressure Visibility Wind Dir Wind Speed Gust Speed Precip Events Conditions
12:15 AM 51.8 °F - 46.4 °F 82% 29.41 in 10.0 mi South 6.9 mph - N/A   Clear
12:35 AM 53.6 °F - 46.4 °F 77% 29.41 in 10.0 mi South 6.9 mph - N/A   Clear
12:55 AM 51.8 °F - 46.4 °F 82% 29.40 in 10.0 mi SSE 5.8 mph - N/A   Clear
1:15 AM 53.6 °F - 46.4 °F 77% 29.40 in 10.0 mi SSE 6.9 mph - N/A   Clear
1:35 AM 53.6 °F - 46.4 °F 77% 29.39 in 10.0 mi SSE 6.9 mph - N/A   Clear
1:55 AM 53.6 °F - 46.4 °F 77% 29.39 in 10.0 mi South 5.8 mph - N/A   Clear
2:15 AM 53.6 °F - 46.4 °F 77% 29.38 in 10.0 mi SSE 9.2 mph - N/A   Clear
2:35 AM 53.6 °F - 46.4 °F 77% 29.38 in 10.0 mi SSE 8.1 mph - N/A   Clear
2:55 AM 53.6 °F - 46.4 °F 77% 29.38 in 10.0 mi SSE 9.2 mph - N/A   Clear
3:15 AM 53.6 °F - 46.4 °F 77% 29.36 in 10.0 mi SSE 11.5 mph - N/A   Clear
3:35 AM 53.6 °F - 46.4 °F 77% 29.34 in 10.0 mi SSE 10.4 mph - N/A   Clear
3:55 AM 53.6 °F - 46.4 °F 77% 29.33 in 10.0 mi SSE 12.7 mph - N/A   Mostly Cloudy
4:15 AM 55.4 °F - 48.2 °F 77% 29.33 in 10.0 mi South 9.2 mph - N/A   Scattered Clouds
4:35 AM 55.4 °F - 48.2 °F 77% 29.33 in 10.0 mi South 9.2 mph - N/A   Mostly Cloudy
4:55 AM 55.4 °F - 48.2 °F 77% 29.32 in 10.0 mi SSE 9.2 mph - N/A   Mostly Cloudy
5:15 AM 55.4 °F - 48.2 °F 77% 29.31 in 10.0 mi SSE 10.4 mph - N/A   Scattered Clouds
5:35 AM 57.2 °F - 48.2 °F 72% 29.30 in 10.0 mi SSE 15.0 mph - N/A   Clear
5:55 AM 57.2 °F - 48.2 °F 72% 29.29 in 10.0 mi SSE 15.0 mph - N/A   Clear
6:15 AM 57.2 °F - 48.2 °F 72% 29.28 in 10.0 mi SSE 15.0 mph - N/A   Scattered Clouds
6:35 AM 57.2 °F - 48.2 °F 72% 29.28 in 10.0 mi South 15.0 mph - N/A   Scattered Clouds
6:55 AM 57.2 °F - 48.2 °F 72% 29.29 in 10.0 mi South 15.0 mph - N/A   Clear
7:15 AM 55.4 °F - 48.2 °F 77% 29.30 in 10.0 mi South 15.0 mph 18.4 mph N/A   Scattered Clouds
7:35 AM 55.4 °F - 50.0 °F 82% 29.30 in 10.0 mi South 13.8 mph - N/A   Scattered Clouds
7:55 AM 57.2 °F - 51.8 °F 82% 29.31 in 10.0 mi SSW 15.0 mph - N/A Rain Rain
8:15 AM 57.2 °F - 50.0 °F 77% 29.32 in 10.0 mi SW 11.5 mph - N/A   Scattered Clouds
8:35 AM 59.0 °F - 50.0 °F 72% 29.32 in 10.0 mi WSW 12.7 mph - N/A   Clear
8:55 AM 59.0 °F - 50.0 °F 72% 29.33 in 10.0 mi WSW 13.8 mph - N/A   Clear
9:15 AM 59.0 °F - 51.8 °F 77% 29.34 in 10.0 mi WSW 17.3 mph 25.3 mph N/A Rain Rain
9:35 AM 57.2 °F - 51.8 °F 82% 29.34 in 10.0 mi WSW 17.3 mph - N/A Rain Light Rain
9:55 AM 55.4 °F - 51.8 °F 88% 29.35 in 10.0 mi WSW 13.8 mph - N/A Rain Rain
10:15 AM 55.4 °F - 51.8 °F 88% 29.35 in 10.0 mi WSW 19.6 mph 26.5 mph N/A Rain Rain
10:35 AM 55.4 °F - 51.8 °F 88% 29.38 in 10.0 mi West 21.9 mph 27.6 mph 0.01 in   Drizzle
10:55 AM 53.6 °F - 51.8 °F 94% 29.37 in 10.0 mi West 18.4 mph - 0.02 in Rain Light Rain
11:15 AM 55.4 °F - 51.8 °F 88% 29.38 in 10.0 mi WSW 18.4 mph 21.9 mph N/A   Scattered Clouds
11:35 AM 55.4 °F - 50.0 °F 82% 29.38 in 10.0 mi West 20.7 mph 27.6 mph N/A   Clear
11:55 AM 55.4 °F - 50.0 °F 82% 29.38 in 10.0 mi West 19.6 mph 26.5 mph N/A   Scattered Clouds
12:15 PM 55.4 °F - 48.2 °F 77% 29.38 in 10.0 mi West 19.6 mph 24.2 mph N/A   Scattered Clouds
12:35 PM 57.2 °F - 48.2 °F 72% 29.39 in 10.0 mi West 21.9 mph 27.6 mph N/A   Scattered Clouds
12:55 PM 60.8 °F - 46.4 °F 59% 29.37 in 10.0 mi West 23.0 mph 29.9 mph N/A   Mostly Cloudy
1:15 PM 60.8 °F - 42.8 °F 52% 29.38 in 10.0 mi West 18.4 mph 26.5 mph N/A   Scattered Clouds
1:35 PM 57.2 °F - 39.2 °F 51% 29.37 in 10.0 mi West 24.2 mph 28.8 mph N/A   Clear
1:55 PM 57.2 °F - 39.2 °F 51% 29.37 in 10.0 mi West 20.7 mph 27.6 mph N/A   Clear
2:15 PM 57.2 °F - 39.2 °F 51% 29.37 in 10.0 mi West 19.6 mph 28.8 mph N/A   Clear
2:35 PM 60.8 °F - 37.4 °F 42% 29.36 in 10.0 mi West 19.6 mph 29.9 mph N/A   Clear
2:55 PM 59.0 °F - 37.4 °F 45% 29.35 in 10.0 mi West 26.5 mph 33.4 mph N/A   Scattered Clouds
3:15 PM 57.2 °F - 37.4 °F 48% 29.36 in 10.0 mi West 23.0 mph 35.7 mph N/A   Clear
3:35 PM 57.2 °F - 37.4 °F 48% 29.37 in 10.0 mi West 19.6 mph 29.9 mph N/A   Scattered Clouds
3:55 PM 55.4 °F - 37.4 °F 51% 29.36 in 10.0 mi West 24.2 mph 32.2 mph N/A   Overcast
4:15 PM 55.4 °F - 37.4 °F 51% 29.36 in 10.0 mi West 26.5 mph 31.1 mph N/A   Mostly Cloudy
4:35 PM 55.4 °F - 37.4 °F 51% 29.37 in 10.0 mi West 21.9 mph 31.1 mph N/A   Mostly Cloudy
4:55 PM 55.4 °F - 37.4 °F 51% 29.38 in 10.0 mi West 21.9 mph 31.1 mph N/A   Mostly Cloudy
5:15 PM 53.6 °F - 37.4 °F 54% 29.39 in 10.0 mi West 20.7 mph 31.1 mph N/A   Overcast
5:35 PM 51.8 °F - 39.2 °F 62% 29.41 in 10.0 mi West 24.2 mph 29.9 mph N/A   Overcast
5:55 PM 51.8 °F - 37.4 °F 58% 29.42 in 10.0 mi West 23.0 mph 33.4 mph N/A   Overcast
6:15 PM 51.8 °F - 37.4 °F 58% 29.43 in 10.0 mi West 25.3 mph 32.2 mph N/A   Overcast
6:35 PM 50.0 °F - 37.4 °F 62% 29.43 in 10.0 mi West 20.7 mph 24.2 mph N/A   Overcast
6:55 PM 48.2 °F - 37.4 °F 66% 29.44 in 10.0 mi West 16.1 mph 24.2 mph N/A   Overcast
7:15 PM 50.0 °F - 37.4 °F 62% 29.44 in 10.0 mi West 20.7 mph - N/A   Overcast
7:35 PM 48.2 °F - 37.4 °F 66% 29.45 in 10.0 mi West 18.4 mph 25.3 mph N/A   Overcast
7:55 PM 48.2 °F - 37.4 °F 66% 29.44 in 10.0 mi West 23.0 mph 28.8 mph N/A   Overcast
8:15 PM 48.2 °F - 37.4 °F 66% 29.44 in 10.0 mi West 20.7 mph 26.5 mph N/A   Overcast
8:35 PM 48.2 °F - 37.4 °F 66% 29.43 in 10.0 mi West 20.7 mph 27.6 mph N/A   Overcast
8:55 PM 48.2 °F - 37.4 °F 66% 29.43 in 10.0 mi West 19.6 mph 32.2 mph N/A   Overcast
9:15 PM 48.2 °F - 37.4 °F 66% 29.42 in 10.0 mi West 16.1 mph 24.2 mph N/A   Overcast
9:35 PM 48.2 °F - 37.4 °F 66% 29.42 in 10.0 mi West 13.8 mph - N/A   Overcast
9:55 PM 46.4 °F 37.7 °F 35.6 °F 66% 29.42 in 10.0 mi WNW 26.5 mph 34.5 mph N/A   Overcast
10:15 PM 46.4 °F 38.3 °F 35.6 °F 66% 29.42 in 10.0 mi WNW 23.0 mph 34.5 mph N/A   Overcast
10:35 PM 46.4 °F 38.5 °F 35.6 °F 66% 29.42 in 10.0 mi WNW 21.9 mph 32.2 mph N/A   Mostly Cloudy
10:55 PM 46.4 °F 37.4 °F 33.8 °F 62% 29.41 in 10.0 mi WNW 28.8 mph 34.5 mph N/A   Mostly Cloudy
11:15 PM 46.4 °F 37.5 °F 33.8 °F 62% 29.40 in 10.0 mi WNW 27.6 mph 33.4 mph N/A   Overcast
11:35 PM 46.4 °F 37.2 °F 33.8 °F 62% 29.40 in 10.0 mi WNW 29.9 mph 41.4 mph N/A   Overcast
11:55 PM 46.4 °F 37.2 °F 33.8 °F 62% 29.40 in 10.0 mi WNW 29.9 mph 39.1 mph N/A   Overcast